Location: Maignaut
(43.8886°N, 0.4051°E)
Time: 23:46:05
(UTC+00:00)

Okean 1 - Pass Details

Date: 27 February 2020
Orbit: 538 x 556 km, 82.5° (Epoch: 04 April)

Event Time Altitude Azimuth Distance (km) Brightness Sun altitude
Rises 18:41:59 0° 356° (N) 2,725 6.9 -11.3°
Reaches altitude 10° 18:44:13 10° 2° (N) 1,824 6.0 -11.7°
Maximum altitude 18:48:07 49° 78° (ENE) 711 3.5 -12.4°
Drops below altitude 10° 18:51:57 10° 154° (SSE) 1,799 5.7 -13.1°
Sets 18:54:09 0° 160° (SSE) 2,684 6.6 -13.5°
